"Pseudo-MPEC" for C8FZAW2

Created 2022 Nov 25 8:22:09 UT using Find_Orb

Click here for an explanation of pseudo-MPECs

 
 Astrometry: 
     C8FZAW2*1C2022 11 20.22693801 40 04.609-05 21 52.42   ~BK67 21.20GVNEOCPG96
     C8FZAW2 1C2022 11 20.23211201 40 03.047-05 22 01.13   ~BK67 20.60GVNEOCPG96
     C8FZAW2 1C2022 11 20.23728501 40 01.474-05 22 09.59   ~BK67 21.42GVNEOCPG96
     C8FZAW2 1C2022 11 20.24245301 39 59.918-05 22 19.06   ~BK67 21.58GVNEOCPG96
     C8FZAW2 KC2022 11 20.33890301 39 34.409-05 24 59.18   ~BK8b 21.33GVNEOCPI52
     C8FZAW2 KC2022 11 20.34199301 39 33.876-05 25 04.73   ~BK8b 21.00GVNEOCPI52
     C8FZAW2 KC2022 11 20.34508001 39 33.224-05 25 09.34   ~BK8b 21.13GVNEOCPI52

Station data:
(G96) Mt. Lemmon Survey  (N32.442751 W110.788720)  US/Arizona.  Observers T.
   A. Pruyne, B. M. Africano, E. J. Christensen, G. A. Farneth, D. C. Fuls,
   A. R. Gibbs, A. D. Grauer, H. Gröller, J. A. Johnson, R. A. Kowalski, S.
   M. Larson, G. J. Leonard, D. Rankin, R. L. Seaman, F. C. Shelly, K. W.
   Wierzchoś. 1.5-m reflector + 10K CCD.
(I52) Steward Observatory, Mt. Lemmon Station  (N32.442544 W110.788920)
   US/Arizona.  Observers T. A. Pruyne, B. M. Africano, E. J. Christensen, G.
   A. Farneth, D. C. Fuls, A. R. Gibbs, A. D. Grauer, H. Gröller, J. A.
   Johnson, R. A. Kowalski, S. M. Larson, G. J. Leonard, D. Rankin, R. L.
   Seaman, F. C. Shelly, K. W. Wierzchoś. 1.0-m reflector + CCD.

Orbital elements:  C8FZAW2
   Perihelion 2022 Dec 18.33923 +/- 1.57 TT =  8:08:29 (JD 2459931.83923)
Epoch 2022 Nov 20.0 TT = JDT 2459903.5   Earth MOID: 0.0000   Ma: 0.0329
M 348.47976229 +/- 5.3              (J2000 ecliptic)          AutoNEOCP
n   0.40651195 +/- 0.166            Peri.   34.30290 +/- 0.9
a   1.80476433 +/- 0.491            Node    58.97168 +/- 0.6
e   0.4838367 +/- 0.148             Incl.    3.32060 +/- 0.8
P   2.42/885.57d           H 31.1   G  0.15   U 11.5
q 0.93155300 +/- 0.0142    Q 2.67797566 +/- 0.995
From 7 observations 2022 Nov. 20 (2.8 hr); mean residual 0".32
Residuals in arcseconds: 
221120 G96  .18+  .42-    221120 G96  .15-  .01+    221120 I52  .47-  .02+    
221120 G96  .08+  .06-    221120 I52  .21-  .27+    
221120 G96  .15-  .50+    221120 I52  .71+  .32-    

Ephemerides (geocentric):
Date (UTC) HH   RA             Dec           delta  r     elong  mag " sig PA
---- --------  ------------   ------------  ------ ------ -----  --- --------
2022 11 25 08  15 37 54.414   +14 45 20.47  .01933 .97164  36.0 29?? 832'  31
2022 11 25 09  15 37 55.388   +14 45 20.13  .01954 .97146  36.0 29?? 833'  31
2022 11 25 10  15 37 56.343   +14 45 19.66  .01975 .97129  36.0 29?? 833'  31
2022 11 25 11  15 37 57.280   +14 45 19.07  .01996 .97112  36.0 29?? 833'  31
2022 11 25 12  15 37 58.197   +14 45 18.34  .02017 .97095  36.0 29?? 834'  31
2022 11 25 13  15 37 59.097   +14 45 17.50  .02037 .97078  36.0 29?? 834'  31
2022 11 25 14  15 37 59.980   +14 45 16.54  .02058 .97061  36.1 29?? 835'  31
2022 11 25 15  15 38 00.846   +14 45 15.46  .02079 .97044  36.1 29?? 835'  31
2022 11 25 16  15 38 01.696   +14 45 14.26  .02100 .97026  36.1 29?? 835'  31
2022 11 25 17  15 38 02.530   +14 45 12.94  .02121 .97009  36.1 29?? 836'  31
2022 11 25 18  15 38 03.349   +14 45 11.52  .02141 .96992  36.1 29?? 836'  31
2022 11 25 19  15 38 04.153   +14 45 09.98  .02162 .96975  36.1 30?? 836'  31
2022 11 25 20  15 38 04.943   +14 45 08.34  .02183 .96958  36.1 30?? 837'  31
2022 11 25 21  15 38 05.719   +14 45 06.58  .02204 .96941  36.2 30?? 837'  31
2022 11 25 22  15 38 06.481   +14 45 04.72  .02225 .96924  36.2 30?? 837'  31
2022 11 25 23  15 38 07.230   +14 45 02.75  .02246 .96907  36.2 30?? 838'  31
2022 11 26 00  15 38 07.967   +14 45 00.68  .02266 .96890  36.2 30?? 838'  31
2022 11 26 01  15 38 08.691   +14 44 58.51  .02287 .96873  36.2 30?? 838'  31
2022 11 26 02  15 38 09.403   +14 44 56.24  .02308 .96856  36.2 30?? 839'  31
2022 11 26 03  15 38 10.103   +14 44 53.86  .02329 .96839  36.2 30?? 839'  31
2022 11 26 04  15 38 10.792   +14 44 51.39  .02350 .96822  36.3 30?? 839'  31
2022 11 26 05  15 38 11.470   +14 44 48.82  .02370 .96805  36.3 30?? 839'  31
2022 11 26 06  15 38 12.137   +14 44 46.15  .02391 .96788  36.3 30?? 840'  31
2022 11 26 07  15 38 12.794   +14 44 43.39  .02412 .96771  36.3 30?? 840'  31
2022 11 26 08  15 38 13.440   +14 44 40.53  .02433 .96754  36.3 30?? 840'  31
2022 11 26 09  15 38 14.077   +14 44 37.58  .02454 .96737  36.3 30?? 840'  31
2022 11 26 10  15 38 14.704   +14 44 34.54  .02474 .96720  36.4 30?? 841'  31
2022 11 26 11  15 38 15.321   +14 44 31.40  .02495 .96703  36.4 30?? 841'  31
2022 11 26 12  15 38 15.930   +14 44 28.18  .02516 .96686  36.4 30?? 841'  31
2022 11 26 13  15 38 16.529   +14 44 24.86  .02537 .96669  36.4 30?? 841'  31
2022 11 26 14  15 38 17.120   +14 44 21.45  .02558 .96652  36.4 30?? 842'  31
2022 11 26 15  15 38 17.703   +14 44 17.96  .02579 .96635  36.4 30?? 842'  31
2022 11 26 16  15 38 18.277   +14 44 14.38  .02599 .96618  36.4 30?? 842'  31
2022 11 26 17  15 38 18.843   +14 44 10.71  .02620 .96601  36.5 30?? 842'  31
2022 11 26 18  15 38 19.402   +14 44 06.95  .02641 .96584  36.5 30?? 842'  31
2022 11 26 19  15 38 19.953   +14 44 03.11  .02662 .96567  36.5 30?? 843'  31
2022 11 26 20  15 38 20.496   +14 43 59.18  .02683 .96551  36.5 30?? 843'  31
2022 11 26 21  15 38 21.032   +14 43 55.17  .02704 .96534  36.5 30?? 843'  31
2022 11 26 22  15 38 21.562   +14 43 51.08  .02724 .96517  36.5 30?? 843'  31
2022 11 26 23  15 38 22.084   +14 43 46.90  .02745 .96500  36.5 30?? 843'  31
2022 11 27 00  15 38 22.600   +14 43 42.64  .02766 .96483  36.6 30?? 844'  31
2022 11 27 01  15 38 23.109   +14 43 38.29  .02787 .96466  36.6 30?? 844'  31
2022 11 27 02  15 38 23.612   +14 43 33.87  .02808 .96449  36.6 30?? 844'  31
2022 11 27 03  15 38 24.109   +14 43 29.37  .02829 .96433  36.6 30?? 844'  31
2022 11 27 04  15 38 24.600   +14 43 24.78  .02849 .96416  36.6 30?? 844'  31
2022 11 27 05  15 38 25.085   +14 43 20.11  .02870 .96399  36.6 30?? 844'  31
2022 11 27 06  15 38 25.564   +14 43 15.37  .02891 .96382  36.7 30?? 845'  31
2022 11 27 07  15 38 26.038   +14 43 10.54  .02912 .96365  36.7 30?? 845'  31